Precipitable_Water
1.12 1.19 1.26 1.32 1.42 1.39 1.35 1.32 1.33 1.39 1.42 1.41 1.44 1.45 1.47 1.57 1.57 1.53 1.53 1.53 1.45 1.51 1.60 1.59 1.67 1.77 1.80 1.84 1.85 1.82 1.78 1.76 1.58 1.72 1.90 2.02 1.94 1.86 1.76 1.74 1.73 1.68 1.64
1.17 1.21 1.28 1.39 1.42 1.35 1.30 1.27 1.28 1.27 1.36 1.36 1.35 1.34 1.37 1.43 1.42 1.41 1.42 1.47 1.50 1.44 1.37 1.44 1.46 1.57 1.62 1.65 1.68 1.74 1.74 1.75 1.62 1.59 1.79 1.88 1.88 1.92 1.78 1.65 1.62 1.61 1.57
1.30 1.25 1.26 1.29 1.36 1.35 1.36 1.39 1.36 1.32 1.32 1.34 1.32 1.30 1.34 1.35 1.32 1.42 1.51 1.40 1.45 1.56 1.55 1.35 1.30 1.36 1.39 1.49 1.55 1.56 1.64 1.73 1.76 1.68 1.69 1.84 1.87 1.90 1.70 1.65 1.54 1.51 1.53
1.41 1.28 1.26 1.29 1.32 1.37 1.42 1.46 1.47 1.44 1.35 1.33 1.35 1.36 1.36 1.32 1.34 1.35 1.39 1.41 1.37 1.42 1.53 1.55 1.41 1.29 1.29 1.31 1.33 1.37 1.44 1.49 1.62 1.77 1.81 1.78 1.84 1.83 1.74 1.51 1.40 1.44 1.40
1.56 1.39 1.37 1.44 1.40 1.38 1.41 1.45 1.46 1.46 1.41 1.34 1.34 1.33 1.40 1.37 1.32 1.33 1.37 1.41 1.40 1.30 1.45 1.51 1.49 1.45 1.42 1.26 1.15 1.22 1.30 1.30 1.43 1.60 1.61 1.67 1.66 1.64 1.57 1.56 1.46 1.42 1.39
1.65 1.56 1.55 1.66 1.71 1.60 1.44 1.35 1.40 1.46 1.46 1.37 1.34 1.35 1.25 1.32 1.32 1.35 1.37 1.33 1.38 1.37 1.39 1.44 1.53 1.52 1.38 1.33 1.33 1.37 1.35 1.24 1.23 1.30 1.37 1.42 1.57 1.59 1.63 1.61 1.50 1.39 1.23
1.63 1.62 1.59 1.65 1.66 1.71 1.73 1.58 1.37 1.35 1.41 1.36 1.39 1.35 1.28 1.30 1.32 1.33 1.34 1.32 1.33 1.33 1.42 1.42 1.44 1.47 1.49 1.46 1.43 1.43 1.37 1.36 1.31 1.25 1.20 1.29 1.35 1.54 1.61 1.49 1.44 1.39 1.33
1.46 1.58 1.74 1.70 1.89 1.98 1.97 1.94 1.85 1.48 1.40 1.33 1.35 1.39 1.33 1.32 1.33 1.29 1.31 1.27 1.28 1.38 1.41 1.44 1.45 1.44 1.50 1.45 1.40 1.37 1.40 1.35 1.31 1.27 1.26 1.28 1.34 1.37 1.37 1.37 1.39 1.38 1.38
1.59 1.68 1.67 1.70 1.30 1.37 1.83 1.68 1.95 1.87 1.62 1.45 1.43 1.43 1.37 1.37 1.39 1.33 1.28 1.24 1.19 1.27 1.43 1.49 1.46 1.47 1.48 1.43 1.36 1.31 1.31 1.27 1.41 1.39 1.36 1.33 1.33 1.32 1.30 1.26 1.14 1.10 1.15
1.38 1.47 1.50 1.53 1.40 1.16 1.07 1.25 1.20 1.33 1.57 1.75 1.55 1.56 1.47 1.41 1.36 1.31 1.27 1.23 1.20 1.24 1.33 1.37 1.43 1.41 1.41 1.39 1.33 1.32 1.28 1.29 1.34 1.35 1.35 1.39 1.39 1.35 1.34 1.31 1.23 1.08 1.05
1.29 1.37 1.49 1.51 1.36 1.29 1.26 1.18 1.18 1.11 1.63 1.68 1.63 1.59 1.50 1.51 1.35 1.30 1.23 1.23 1.25 1.17 1.21 1.24 1.30 1.37 1.33 1.32 1.31 1.29 1.32 1.41 1.39 1.40 1.40 1.37 1.36 1.36 1.36 1.35 1.37 1.29 1.17
1.17 1.17 1.25 1.30 1.27 1.18 1.20 1.15 1.05 0.94 1.21 1.51 1.63 1.65 1.57 1.54 1.42 1.35 1.27 1.30 1.34 1.27 1.21 1.24 1.29 1.37 1.35 1.32 1.21 1.20 1.27 1.28 1.33 1.31 1.30 1.30 1.31 1.33 1.35 1.36 1.40 1.42 1.44
1.04 0.96 0.95 1.04 1.14 1.06 0.96 0.99 1.12 1.29 1.56 1.59 1.65 1.65 1.52 1.52 1.50 1.44 1.36 1.33 1.34 1.31 1.31 1.29 1.30 1.29 1.35 1.34 1.27 1.24 1.21 1.20 1.22 1.20 1.16 1.19 1.28 1.34 1.38 1.37 1.41 1.40 1.37
1.03 0.99 0.93 0.94 0.94 0.99 1.01 1.09 1.17 1.32 1.46 1.63 1.70 1.57 1.54 1.54 1.54 1.50 1.44 1.35 1.31 1.32 1.34 1.31 1.31 1.29 1.26 1.31 1.36 1.31 1.26 1.24 1.20 1.10 1.06 1.10 1.15 1.14 1.20 1.32 1.33 1.38 1.34
1.04 1.12 1.06 1.01 1.07 1.15 1.14 1.13 1.25 1.51 1.64 1.65 1.48 1.48 1.52 1.54 1.59 1.61 1.47 1.31 1.28 1.36 1.32 1.24 1.20 1.24 1.23 1.22 1.26 1.29 1.31 1.30 1.27 1.25 1.22 1.19 1.16 1.17 1.16 1.24 1.29 1.29 1.22
1.14 1.18 1.16 1.19 1.20 1.19 1.26 1.30 1.40 1.60 1.72 1.75 1.69 1.64 1.68 1.66 1.64 1.62 1.43 1.25 1.29 1.32 1.23 1.11 1.07 1.12 1.17 1.20 1.23 1.29 1.37 1.27 1.35 1.31 1.29 1.30 1.24 1.27 1.26 1.27 1.22 1.20 1.16
1.18 1.22 1.24 1.26 1.28 1.24 1.26 1.34 1.33 1.47 1.61 1.71 1.70 1.69 1.68 1.62 1.59 1.47 1.20 1.22 1.26 1.20 1.07 1.06 1.05 1.05 1.09 1.06 1.06 1.05 1.01 1.08 1.25 1.17 1.24 1.28 1.29 1.33 1.26 1.18 1.17 1.17 1.13
1.15 1.22 1.22 1.23 1.41 1.35 1.41 1.38 1.36 1.37 1.43 1.47 1.54 1.55 1.48 1.29 1.15 1.13 1.18 1.20 1.12 1.15 1.12 1.10 1.11 1.13 1.14 1.14 1.13 1.10 1.12 1.13 1.09 1.06 1.04 1.04 1.03 1.02 1.01 0.98 1.01 0.98 1.02
1.17 1.19 1.21 1.24 1.27 1.28 1.32 1.34 1.46 1.44 1.41 1.40 1.36 1.33 1.28 1.24 1.22 1.21 1.24 1.21 1.13 1.18 1.27 1.28 1.25 1.20 1.15 1.13 1.07 1.04 1.05 1.04 1.05 1.04 1.04 1.03 1.02 1.00 0.96 0.94 0.92 0.91 0.90
1.20 1.22 1.27 1.28 1.27 1.31 1.34 1.34 1.33 1.29 1.34 1.33 1.32 1.28 1.28 1.30 1.28 1.28 1.33 1.30 1.28 1.29 1.35 1.30 1.27 1.26 1.22 1.16 1.13 1.10 1.07 1.05 1.03 1.01 0.99 0.97 0.96 0.94 0.88 0.87 0.86 0.83 0.82
1.03 1.18 1.21 1.23 1.26 1.28 1.33 1.34 1.32 1.32 1.35 1.32 1.34 1.40 1.40 1.34 1.31 1.30 1.26 1.27 1.28 1.28 1.25 1.21 1.19 1.17 1.16 1.13 1.05 0.98 0.92 0.90 0.91 0.90 0.88 0.87 0.84 0.77 0.79 0.80 0.79 0.79 0.78
0.83 0.86 1.02 1.10 1.16 1.18 1.22 1.29 1.30 1.31 1.37 1.37 1.39 1.42 1.36 1.34 1.37 1.29 1.26 1.25 1.21 1.23 1.23 1.16 1.09 1.05 1.01 0.96 0.90 0.84 0.81 0.76 0.74 0.75 0.71 0.68 0.60 0.56 0.54 0.52 0.52 0.52 0.53
0.83 0.86 0.88 0.88 0.92 1.01 1.10 1.19 1.23 1.28 1.33 1.33 1.35 1.32 1.27 1.27 1.25 1.21 1.20 1.21 1.18 1.13 1.11 1.02 0.93 0.84 0.78 0.72 0.67 0.63 0.59 0.57 0.58 0.59 0.55 0.53 0.51 0.48 0.47 0.44 0.44 0.44 0.43
0.76 0.82 0.86 0.86 0.86 0.89 0.93 1.00 1.04 1.13 1.17 1.21 1.20 1.16 1.13 1.12 1.08 1.06 1.04 1.04 1.04 1.03 0.96 0.87 0.75 0.65 0.56 0.47 0.43 0.41 0.39 0.38 0.37 0.37 0.38 0.44 0.50 0.49 0.47 0.46 0.47 0.46 0.44
0.80 0.81 0.84 0.86 0.88 0.93 0.92 0.93 0.94 1.00 1.01 1.03 1.05 1.00 1.04 1.05 1.05 1.05 1.03 1.02 0.90 0.79 0.72 0.62 0.53 0.45 0.41 0.40 0.40 0.40 0.39 0.39 0.40 0.41 0.40 0.40 0.43 0.44 0.46 0.44 0.44 0.43 0.42
0.87 0.87 0.88 0.90 0.91 0.99 0.96 0.93 0.94 0.94 0.94 1.03 1.01 1.00 0.97 0.95 0.94 0.85 0.77 0.65 0.58 0.56 0.54 0.49 0.47 0.46 0.45 0.45 0.43 0.40 0.36 0.35 0.35 0.37 0.39 0.38 0.35 0.36 0.38 0.38 0.39 0.40 0.39
Wind_Speed
9 8 7 7 7 7 6 7 6 5 5 5 5 5 5 5 6 7 9 10 11 11 11 12 13 15 16 18 18 19 20 19 16 16 16 17 15 14 12 11 10 10 9
11 10 8 7 7 8 8 8 7 7 6 6 6 6 6 6 7 7 8 10 11 12 13 12 12 12 14 14 16 17 17 19 18 17 17 17 17 17 14 13 12 11 11
10 10 10 10 9 9 9 9 9 9 8 8 8 7 7 7 8 8 9 9 11 11 12 13 13 13 12 13 14 14 15 17 18 18 18 19 18 18 16 14 12 12 11
12 12 12 13 12 11 11 11 11 11 10 10 10 9 9 8 8 9 10 10 10 11 11 12 13 13 13 13 13 13 13 13 14 15 18 15 17 19 17 15 14 13 12
12 13 14 14 15 14 14 14 13 13 12 12 11 11 10 9 9 9 9 9 9 10 11 11 12 13 13 14 14 14 13 12 12 13 13 12 15 17 17 16 15 15 14
14 15 15 16 16 17 17 17 17 16 15 15 14 13 12 11 10 9 9 9 10 10 11 11 11 11 11 12 13 13 13 13 13 13 15 16 17 18 18 17 16 16 16
17 16 17 19 20 21 20 21 21 20 19 18 17 14 14 13 12 10 10 10 10 11 11 11 11 11 10 11 11 13 14 14 14 14 14 16 16 18 18 18 18 18 18
18 19 21 22 23 24 22 18 27 24 23 22 21 19 16 15 13 12 11 10 10 9 9 11 11 10 10 11 11 12 13 13 14 13 14 14 16 17 19 19 19 19 19
23 24 24 22 23 27 32 23 21 23 29 26 25 22 19 16 15 13 12 11 10 10 9 9 10 10 10 9 10 11 11 11 12 13 13 14 15 16 17 18 18 18 19
23 25 24 26 27 31 34 39 47 39 33 31 29 25 22 18 16 15 13 12 12 10 9 9 10 10 10 11 10 10 11 11 12 11 12 13 13 15 16 17 18 18 18
25 26 27 28 32 35 34 33 31 28 28 32 31 27 23 20 17 16 15 13 13 11 10 9 10 10 10 10 11 11 11 11 12 13 12 12 13 13 14 16 16 17 18
27 29 30 31 31 32 31 30 31 33 30 36 35 28 24 20 18 17 16 15 14 12 11 10 11 11 11 10 10 10 10 11 11 12 12 12 13 13 13 14 15 16 17
29 29 30 29 28 27 27 28 28 26 26 31 30 27 24 21 18 17 16 15 15 14 12 11 11 12 12 11 11 10 11 12 12 12 13 14 14 14 14 15 15 16 16
29 28 27 26 26 25 24 22 18 13 18 25 28 24 23 21 20 17 16 15 15 15 14 13 13 13 13 13 14 14 13 14 14 15 15 16 16 16 15 16 17 19 20
27 26 25 24 23 21 18 16 12 12 12 17 17 19 20 18 18 18 16 15 15 15 15 15 15 15 15 16 16 16 15 15 16 17 17 18 18 18 18 19 20 21 22
25 24 23 22 21 19 17 15 14 14 15 17 18 18 18 17 17 16 15 15 15 15 15 15 15 16 16 17 17 17 18 18 18 19 20 20 20 20 21 21 22 23 24
21 21 20 20 18 17 17 17 16 15 14 13 14 15 17 16 15 16 15 16 15 15 14 15 15 15 16 16 17 17 18 18 19 20 20 21 21 22 23 23 24 25 26
16 16 16 16 16 15 16 17 16 15 15 15 13 14 14 14 13 13 13 13 12 13 12 11 12 11 12 13 13 14 15 15 16 17 18 19 20 20 21 21 22 23 24
13 13 12 11 13 14 14 15 15 16 17 17 16 14 16 13 12 12 11 10 11 11 11 11 11 12 12 12 13 13 13 13 14 15 16 16 17 18 19 20 21 22 23
11 10 8 8 7 6 6 7 10 12 14 15 17 13 14 12 13 12 11 11 11 11 11 11 11 11 12 12 13 13 14 15 16 17 18 19 20 21 22 22 23 24 25
10 8 7 7 6 6 7 5 5 7 10 13 13 12 11 11 11 11 9 9 9 10 9 9 10 11 13 13 13 14 14 16 17 18 19 19 20 21 22 22 23 25 25
9 8 7 6 5 5 4 5 5 6 9 10 12 12 10 8 9 9 7 7 7 8 9 9 10 11 12 13 14 15 15 16 17 17 18 18 19 19 20 20 20 21 21
9 8 7 5 5 5 5 5 5 6 8 10 11 10 8 9 10 9 8 8 9 9 10 11 11 11 12 12 13 13 14 15 17 18 18 18 19 19 19 19 20 20 20
9 7 6 5 5 5 5 5 5 7 7 9 10 9 9 9 9 8 8 8 9 11 11 11 11 11 11 12 12 13 15 16 17 18 18 19 20 20 21 22 22 23 23
7 6 5 4 4 5 5 5 6 7 7 9 9 9 9 8 9 9 10 10 10 9 9 9 9 10 11 12 14 15 16 17 18 19 20 20 21 22 23 23 24 24 24
4 3 4 4 4 4 5 6 6 6 7 9 9 10 10 10 9 9 8 7 8 8 8 9 9 10 12 14 15 17 18 19 20 20 21 21 21 22 22 23 23 24 25
Wind_Direction
238 243 251 251 253 246 239 236 245 246 242 245 255 264 257 256 258 257 255 254 251 249 249 248 248 247 244 246 244 246 244 247 246 248 246 243 236 236 236 232 228 223 221
236 238 246 250 254 247 242 236 238 238 246 251 257 260 253 257 264 266 262 259 256 252 250 250 250 249 246 248 247 247 242 241 245 244 242 236 237 231 232 228 225 225 227
233 237 244 248 250 247 244 243 244 251 255 260 258 259 258 262 264 268 264 263 258 254 253 249 247 247 248 246 246 247 246 244 244 242 240 239 233 220 222 224 225 225 230
236 241 247 249 249 248 249 249 252 255 259 259 259 259 261 264 273 275 266 262 262 257 254 251 252 250 246 248 249 248 244 241 240 237 239 230 213 215 220 222 228 231 234
238 244 248 250 252 254 254 254 257 259 261 262 259 259 259 267 277 280 274 261 262 259 254 255 255 252 251 251 249 245 241 240 234 226 230 226 220 216 222 226 231 234 238
247 252 254 257 259 259 259 259 258 257 260 259 260 258 255 262 269 280 279 272 263 260 254 254 253 252 253 253 248 242 239 233 234 235 238 233 231 227 228 231 235 240 244
254 260 261 260 259 259 261 263 259 254 256 257 256 256 253 258 265 271 278 276 272 263 255 250 253 253 252 255 251 243 241 239 240 238 236 235 233 231 233 237 242 242 247
262 264 267 267 268 265 262 268 259 255 253 252 249 252 253 254 257 265 274 278 276 270 253 247 248 251 255 256 252 247 244 242 240 240 239 239 240 239 240 243 244 246 250
271 271 273 272 277 276 281 268 284 275 252 245 244 246 247 249 252 258 265 273 272 265 259 249 246 248 250 257 252 247 245 244 241 240 241 242 243 243 243 244 246 247 250
285 279 276 275 279 285 290 279 300 303 258 239 235 238 241 244 247 253 260 267 267 264 257 251 251 248 252 252 255 248 247 243 240 241 245 247 246 247 245 248 248 249 251
286 287 282 280 282 286 286 287 284 303 248 235 229 230 235 238 243 249 256 262 260 257 255 252 251 250 252 255 255 254 246 243 243 244 246 249 249 251 252 251 252 252 253
287 287 286 286 285 287 287 285 285 288 255 230 227 225 227 232 240 247 252 256 252 251 254 254 253 251 251 251 253 254 243 248 249 246 246 248 249 253 254 255 256 257 258
289 289 288 287 285 287 289 290 292 291 235 214 213 220 224 229 237 244 249 250 247 247 250 254 258 253 248 251 253 252 251 253 254 253 250 251 254 258 260 259 258 258 260
290 289 288 287 289 290 291 294 293 284 229 212 208 214 223 233 233 239 243 245 245 246 248 253 258 256 250 251 258 257 259 258 258 255 256 259 261 262 263 264 264 263 264
285 286 283 283 285 284 285 280 271 258 242 213 215 221 228 228 232 228 237 242 246 249 250 254 257 258 257 255 258 259 259 262 260 259 261 262 263 262 266 268 268 268 267
283 282 279 279 278 276 270 267 260 262 254 242 240 231 226 232 229 226 238 248 245 248 254 253 256 256 260 257 258 261 262 263 262 263 264 264 266 265 268 270 272 273 270
289 280 278 275 271 269 260 256 257 260 253 243 236 227 226 227 227 238 247 245 246 248 255 256 256 258 259 260 261 263 266 266 265 267 266 268 271 271 270 272 273 273 273
298 291 277 272 267 265 260 255 255 253 242 231 225 218 219 225 231 234 238 235 243 244 247 249 251 254 256 259 262 265 266 268 270 271 272 273 275 275 275 277 277 277 279
315 304 290 280 266 260 257 259 248 244 233 227 223 220 214 222 225 223 231 238 233 235 241 246 255 258 260 263 267 269 270 271 272 274 275 278 279 279 280 282 282 282 283
314 318 305 304 277 270 267 259 235 230 226 221 207 213 217 221 227 231 233 235 238 239 242 253 261 261 261 267 271 272 274 275 276 278 279 280 282 282 283 284 283 284 286
303 305 301 288 292 275 246 245 227 215 200 201 220 215 205 229 226 229 231 230 231 232 241 258 263 265 269 272 274 277 280 281 280 281 283 285 287 288 289 289 290 290 289
302 302 297 284 273 256 247 218 222 210 203 198 191 199 219 209 203 209 217 224 231 236 248 259 269 272 275 278 279 281 282 284 285 286 288 288 291 292 293 294 296 296 295
292 295 295 284 269 260 250 230 225 214 201 199 199 197 199 206 213 226 231 235 238 252 263 272 275 278 281 282 284 285 286 288 289 289 289 290 290 291 293 294 296 296 297
286 286 279 271 267 253 234 227 210 203 204 200 205 209 214 221 224 230 238 246 258 262 268 270 273 277 282 287 290 292 291 291 293 292 292 291 291 292 293 296 296 296 296
289 274 264 262 254 236 222 214 208 209 212 210 212 222 220 222 236 245 254 259 262 264 266 271 277 282 286 289 293 295 295 294 294 293 293 293 293 294 295 295 296 296 297
291 271 245 237 234 218 216 216 216 218 214 214 227 232 239 242 248 248 248 248 252 257 267 276 280 286 292 296 297 298 298 298 297 297 296 296 297 297 297 299 300 299 299